User: anonymous   Login
Location: Kelshall
(52.0000°N, 0.0500°W)
Time: 16:18:56
(UTC+00:00)
Language:

Okean 1 Rocket - Orbit

View from above orbital plane
View from above orbital plane
View from above satellite
View from above satellite

Ground track
Ground track

The orbit data is extracted from the following two-line orbital elements,

1 19275U 88056B   21135.91015921  .00000093  00000-0  84735-5 0  9995
2 19275  82.5168  73.7642 0020043 176.2032 183.9339 14.82790014753888
Epoch (UTC): 15 May 2021 21:50:37
Eccentricity: 0.0020043
inclination: 82.5168°
perigee height: 606 km
apogee height: 634 km
right ascension of ascending node: 73.7642°
argument of perigee: 176.2032°
revolutions per day: 14.82790014
mean anomaly at epoch: 183.9339°
orbit number at epoch: 75388

The dashed part of the orbit path shows where the satellite is in the earth's shadow,  

DLR